Regional Weather Roundup
Issued by NWS Goodland, KS

Home | Current Version | Previous Version | Text Only | Print | Product List | Glossary On
Versions: 1 2 3 4 5 6 7 8 9 10 11 12 13 14 15 16 17 18 19 20 21 22 23 24 25 26 27 28 29 30 31 32 33 34 35 36 37 38 39 40 41 42 43 44 45 46 47 48 49 50
000
ASUS43 KGLD 080708
RWRGLD

GOODLAND FORECAST AREA HOURLY WEATHER ROUNDUP
NATIONAL WEATHER SERVICE GOODLAND KS
100 AM MDT WED JUL 08 2015

...OFFICIAL OBSERVATIONS...

CITY           SKY/WX    TMP DP  RH WIND       PRES   REMARKS
GOODLAND KS    CLOUDY    59  46  62 SE10      30.09F
HILL CITY KS   PTCLDY    56  49  77 E6        30.09S
IMPERIAL NEB   CLOUDY    63  48  58 SE12      30.07F
MCCOOK NEB     MOCLDY    60  50  69 CALM      30.08S
AKRON CO       CLOUDY    62  45  53 SE17      30.09F
BURLINGTON CO  MOCLDY    62  45  53 SE12      30.09F
LIMON CO       PTCLDY    53  44  71 S6        30.11F
$$

...UNOFFICIAL OBSERVATIONS...

CITY           SKY/WX    TMP DP  RH WIND       PRES   REMARKS
COLBY KS       CLOUDY    61  52  72 SE10      30.10F
GOVE KS          N/A     56  32  40 MISG        N/A
NORTON KS      PTCLDY    57  45  62 SE6       30.08S
SHARON SPRINGS   N/A     58  48  69 SE9         N/A
KIT CARSON CO    N/A     60  46  59 MISG        N/A
YUMA CO          N/A     62  47  59 S6          N/A
$$


USA.gov is the U.S. government's official web portal to all federal, state and local government web resources and services.